Location: Barrialito
(10.3588°N, 66.9747°W)
Time: 09:28:32
(UTC+00:00)

BlueWalker 3 - Visible Passes

Search period start: 08 December 2022 00:00
Search period end: 18 December 2022 00:00
Orbit: 501 x 518 km, 53.2° (Epoch: 07 December)

Date Brightness Start Highest point End Pass type
(mag) Time Alt. Az. Time Alt. Az. Time Alt. Az.
14 Dec 3.6 00:03:06 10° NW 00:05:33 31° W 00:05:33 31° W visible
14 Dec 3.5 23:44:43 10° NW 23:48:16 36° WSW 23:51:49 10° S visible
15 Dec 3.8 23:26:21 10° WNW 23:29:49 32° WSW 23:33:17 10° S visible
16 Dec 4.1 23:07:59 10° WNW 23:11:22 29° WSW 23:14:44 10° S visible
17 Dec 4.4 22:49:38 10° WNW 22:52:54 26° WSW 22:56:10 10° S visible
